DELTA 1 R/B, 2096

Orbit data source: Space-Track

DELTA 1 R/B, 2096 is space debris in SSO originally from a launch on Mon, 28 Feb 1966 UTC launched from the Air Force Eastern Test Range (AFETR). Debris objects in space refer to the collection of defunct objects orbiting the Earth. Examples of debris include non-operational satellites, rocket bodies, and fragments generated from explosions, collisions, or faulty payload assembly.

Loading next visibility...
Identifier
2096, 1966-016B
Orbit
SSO
Country
Flag of USUS
Related business
Manufacturer
ABL
Mission
Spacecraft
Bus & Motor
ALTAIR, Unknown motor
Mass
33 kg wet, 33 kg dry
Launch date (UTC)
1966-02-28 (60 years ago)
Launch vehicle
Unknown
Launch site
Air Force Eastern Test Range (AFETR)
Object type
Payload
Rocket body
Debris
Shape & HBR
Unknown
Radar Cross Section
Medium (>0.1 m² and <1 m²)

Expand to show TLE details & history
Last TLE update: 9 hours ago

TLE from 9 hours ago
0 DELTA 1 R/B
1 02096U 66016B   26176.16488163 -.00000014  00000-0  14097-3 0  9995
2 02096 100.8779  13.3360 0040153 144.5182 335.0091 12.69998235795089
Epoch: 2026-06-25T03:57Z
TLE epoch observation values (Epoch: 2026-06-25T03:57:25.772Z)
Latitude
58.97763°
Longitude
-120.79389°
Altitude
1,363.555 km
Speed
7.195 km/s
True Right ascension
14h 07m 30s
True Declination
58° 50' 15"
Sunlit
Object was in daylight at epoch
Visualization orbit readout
Latitude
Unknown
Longitude
Unknown
Altitude
Unknown
Speed
Unknown
Apparent Right ascension
Unknown
Apparent Declination
Unknown
Sunlit
N/A
Visualization observer readout
Local Sidereal Time
00:15:12
Azimuth
Unknown
Elevation
Unknown
Doppler factor
Unknown
Orbital elements
Apogee altitude
1,410.567 km
Perigee altitude
1,348.269 km
Semi-major axis
7,757.555 km
Eccentricity
0.00402
Inclination
100.8779°
RAAN
13.336°
Arg. of periapsis
144.5182°
True anomaly
334.81382°
Mean anomaly
335.0091°
Eccentric anomaly
334.91155°
Mean motion
3.17655 °/min
Orbital period
113.33 mins
BSTAR
0.00014097
Loading maneuver chart data...
Computing Atmospheric mass density...
Loading historical data...
Loading historical data...
Loading historical data...
Loading historical data...
Loading historical data...
Loading historical data...
Loading historical data...
Other satellites on launch #16 in the year 1966 (1966-02-28 UTC)

Documentation

Showing up to 5 results
|